Retour au catalogue

STARLINK-31311

ActifCommunicationsVLEO
NORAD 58948·PAYLOAD·🇺🇸 United States

Lancé Feb 10, 2024 depuis Vandenberg Space Force Base

Loading…

Prochains Passages (prochaines 24 heures)

TLE

FraisSource: CelesTrak SupGP

Époque: Sep 15, 2026, 02:14 UTC

1 58948C 24027T   26258.09354167  .00006042  00000+0  17852-3 0  2582
2 58948  53.1580 146.6363 0001354  85.6554 232.0454 15.34384986    15

Suivez STARLINK-31311 en temps réel avec AllMySat

Download on the App Store